User: anonymous   Login
Location: Wells
(51.2093°N, 2.6446°W)
Time: 20:41:31
(UTC+00:00)
Language:

AO-91 - Orbit

View from above orbital plane
View from above orbital plane
View from above satellite
View from above satellite

Ground track
Ground track

The orbit is defined by the following mean orbital elements,

1 43017U          26075.15142384 +.00000000 +00000-0 +40764-3 0 00000
2 43017  97.4857 304.3123 0153612 289.7330  68.7387 15.11027162    08
Epoch (UTC): 16 March 2026 03:38:03
Eccentricity: 0.0153612
inclination: 97.4857°
perigee height: 427 km
apogee height: 639 km
right ascension of ascending node: 304.3123°
argument of perigee: 289.7330°
revolutions per day: 15.11027162
mean anomaly at epoch: 68.7387°

The dashed part of the orbit path shows where the satellite is in the earth's shadow,  

DLR